Ely, MN

5:08 PM CST on November 20, 2017 (GMT -0600)
Ely Municipal

Weather History for KELO - October, 2011

Change the Weather History Date:

Monday, October 3, 2011

  Actual Average Record
Temperature  
Mean Temperature 58 °F -  
Max Temperature 78 °F 55 °F 78 °F (2011)
Min Temperature 37 °F 35 °F 21 °F (1999)
Degree Days  
Heating Degree Days 8    
Growing Degree Days 8 (Base 50)    
Moisture  
Dew Point 39 °F    
Average Humidity 57    
Maximum Humidity 93    
Minimum Humidity 23    
Precipitation  
Precipitation 0.00 in - - ()
Sea Level Pressure  
Sea Level Pressure 30.17 in    
Wind  
Wind Speed 3 mph (South)    
Max Wind Speed 12 mph    
Max Gust Speed 18 mph    
Visibility 10 miles    
Events      
Averages and records for this station are not official NWS values.
T = Trace of Precipitation, MM = Missing Value Source: NWS Daily Summary

Daily Weather History Graph

Daily Weather History Graph

Search for Another Location

Airport or City:

Trip Planner

Search our weather history database for the weather conditions in past years. The results will help you decide how hot, cold, wet, or windy it might be!

Date:

Astronomy

Oct. 03, 2011 Rise Set
Actual Time 7:08 AM CDT 6:43 PM CDT
Civil Twilight 6:38 AM CDT 7:13 PM CDT
Nautical Twilight 6:02 AM CDT 7:49 PM CDT
Astronomical Twilight 5:25 AM CDT 8:25 PM CDT
Moon 2:30 PM CDT (10/3) 11:24 PM CDT (10/3)
Length of Visible Light 12h 35m
Length of Day
11h 34m
Waxing Crescent, 45% of the Moon is Illuminated
Oct 3
Waxing Crescent
Oct 3
First Quarter
Oct 11
Full
Oct 19
Last Quarter
Oct 26
New

Hourly Weather History & Observations

Time (CDT) Temp. Dew Point Humidity Pressure Visibility Wind Dir Wind Speed Gust Speed Precip Events Conditions
12:13 AM 46.4 °F 39.2 °F 76% 30.16 in 10.0 mi Calm Calm - N/A   Clear
12:33 AM 44.6 °F 39.2 °F 81% 30.17 in 10.0 mi Calm Calm - N/A   Clear
12:52 AM 44.6 °F 39.2 °F 81% 30.17 in 10.0 mi Calm Calm - N/A   Clear
1:13 AM 44.6 °F 39.2 °F 81% 30.18 in 10.0 mi Calm Calm - N/A   Clear
1:33 AM 42.8 °F 39.2 °F 87% 30.18 in 10.0 mi Calm Calm - N/A   Clear
1:52 AM 42.8 °F 37.4 °F 81% 30.18 in 10.0 mi Calm Calm - N/A   Clear
2:13 AM 41.0 °F 37.4 °F 87% 30.18 in 10.0 mi Calm Calm - N/A   Clear
2:32 AM 41.0 °F 39.2 °F 93% 30.18 in 10.0 mi Calm Calm - N/A   Clear
2:52 AM 41.0 °F 37.4 °F 87% 30.18 in 10.0 mi Calm Calm - N/A   Clear
3:13 AM 39.2 °F 37.4 °F 93% 30.17 in 10.0 mi Calm Calm - N/A   Clear
3:33 AM 39.2 °F 37.4 °F 93% 30.17 in 10.0 mi Calm Calm - N/A   Clear
3:52 AM 37.4 °F 35.6 °F 93% 30.17 in 10.0 mi Calm Calm - N/A   Clear
4:13 AM 39.2 °F 35.6 °F 87% 30.17 in 10.0 mi Calm Calm - N/A   Clear
4:32 AM 37.4 °F 35.6 °F 93% 30.17 in 10.0 mi Calm Calm - N/A   Clear
4:53 AM 37.4 °F 35.6 °F 93% 30.18 in 10.0 mi Calm Calm - N/A   Clear
5:12 AM 39.2 °F 35.6 °F 87% 30.18 in 10.0 mi Calm Calm - N/A   Clear
5:33 AM 39.2 °F 35.6 °F 87% 30.18 in 10.0 mi Calm Calm - N/A   Clear
5:53 AM 39.2 °F 37.4 °F 93% 30.18 in 10.0 mi Calm Calm - N/A   Clear
6:12 AM 39.2 °F 37.4 °F 93% 30.19 in 10.0 mi Calm Calm - N/A   Clear
6:33 AM 42.8 °F 37.4 °F 81% 30.19 in 10.0 mi Calm Calm - N/A   Clear
6:53 AM 42.8 °F 37.4 °F 81% 30.19 in 10.0 mi Calm Calm - N/A   Clear
7:12 AM 41.0 °F 37.4 °F 87% 30.19 in 10.0 mi Calm Calm - N/A   Clear
7:33 AM 42.8 °F 37.4 °F 81% 30.19 in 10.0 mi Calm Calm - N/A   Clear
7:53 AM 42.8 °F 37.4 °F 81% 30.19 in 10.0 mi Calm Calm - N/A   Clear
8:12 AM 44.6 °F 39.2 °F 81% 30.19 in 10.0 mi Calm Calm - N/A   Clear
8:33 AM 50.0 °F 41.0 °F 71% 30.19 in 10.0 mi Calm Calm - N/A   Clear
8:53 AM 53.6 °F 39.2 °F 58% 30.20 in 10.0 mi SE 3.5 mph - N/A   Clear
9:12 AM 57.2 °F 39.2 °F 51% 30.19 in 10.0 mi SSE 4.6 mph - N/A   Clear
9:33 AM 59.0 °F 41.0 °F 51% 30.20 in 10.0 mi South 3.5 mph - N/A   Clear
9:52 AM 60.8 °F 41.0 °F 48% 30.20 in 10.0 mi SSE 4.6 mph - N/A   Clear
10:12 AM 62.6 °F 41.0 °F 45% 30.20 in 10.0 mi SSE 8.1 mph - N/A   Clear
10:33 AM 66.2 °F 42.8 °F 43% 30.20 in 10.0 mi SSE 6.9 mph - N/A   Clear
10:52 AM 66.2 °F 42.8 °F 43% 30.20 in 10.0 mi South 5.8 mph - N/A   Clear
11:12 AM 69.8 °F 42.8 °F 38% 30.20 in 10.0 mi SSE 6.9 mph - N/A   Clear
11:33 AM 69.8 °F 41.0 °F 35% 30.19 in 10.0 mi SSE 9.2 mph - N/A   Clear
11:52 AM 71.6 °F 42.8 °F 35% 30.18 in 10.0 mi South 6.9 mph - N/A   Clear
12:12 PM 71.6 °F 42.8 °F 35% 30.19 in 10.0 mi South 9.2 mph - N/A   Clear
12:33 PM 73.4 °F 42.8 °F 33% 30.18 in 10.0 mi SSE 6.9 mph - N/A   Clear
12:52 PM 75.2 °F 42.8 °F 31% 30.18 in 10.0 mi SSE 6.9 mph - N/A   Clear
1:12 PM 77.0 °F 39.2 °F 26% 30.17 in 10.0 mi SSW 9.2 mph - N/A   Clear
1:33 PM 77.0 °F 39.2 °F 26% 30.16 in 10.0 mi South 8.1 mph - N/A   Clear
1:52 PM 78.8 °F 39.2 °F 24% 30.16 in 10.0 mi South 9.2 mph - N/A   Clear
2:12 PM 78.8 °F 37.4 °F 23% 30.16 in 10.0 mi South 10.4 mph - N/A   Clear
2:33 PM 78.8 °F 39.2 °F 24% 30.16 in 10.0 mi South 10.4 mph 18.4 mph N/A   Clear
2:52 PM 78.8 °F 39.2 °F 24% 30.15 in 10.0 mi SSW 4.6 mph - N/A   Clear
3:13 PM 78.8 °F 39.2 °F 24% 30.15 in 10.0 mi SSW 10.4 mph - N/A   Clear
3:32 PM 78.8 °F 39.2 °F 24% 30.15 in 10.0 mi SSW 10.4 mph - N/A   Clear
3:53 PM 78.8 °F 39.2 °F 24% 30.14 in 10.0 mi South 11.5 mph - N/A   Clear
4:12 PM 78.8 °F 39.2 °F 24% 30.14 in 10.0 mi South 10.4 mph - N/A   Clear
4:32 PM 77.0 °F 37.4 °F 24% 30.14 in 10.0 mi South 8.1 mph 16.1 mph N/A   Clear
4:53 PM 77.0 °F 39.2 °F 26% 30.13 in 10.0 mi South 9.2 mph - N/A   Clear
5:13 PM 75.2 °F 39.2 °F 27% 30.13 in 10.0 mi South 9.2 mph - N/A   Clear
5:32 PM 75.2 °F 39.2 °F 27% 30.13 in 10.0 mi South 10.4 mph - N/A   Clear
5:53 PM 73.4 °F 39.2 °F 29% 30.14 in 10.0 mi South 9.2 mph 16.1 mph N/A   Clear
6:13 PM 71.6 °F 37.4 °F 29% 30.14 in 10.0 mi South 8.1 mph - N/A   Clear
6:33 PM 69.8 °F 37.4 °F 31% 30.14 in 10.0 mi South 9.2 mph - N/A   Clear
6:52 PM 68.0 °F 37.4 °F 33% 30.15 in 10.0 mi SSE 3.5 mph - N/A   Clear
7:13 PM 64.4 °F 42.8 °F 45% 30.15 in 10.0 mi SSE 5.8 mph - N/A   Clear
7:33 PM 62.6 °F 42.8 °F 48% 30.15 in 10.0 mi SSE 5.8 mph - N/A   Clear
7:52 PM 62.6 °F 44.6 °F 52% 30.15 in 10.0 mi SSE 5.8 mph - N/A   Clear
8:13 PM 60.8 °F 44.6 °F 55% 30.15 in 10.0 mi SSE 5.8 mph - N/A   Clear
8:33 PM 60.8 °F 44.6 °F 55% 30.16 in 10.0 mi SSE 4.6 mph - N/A   Clear
8:52 PM 57.2 °F 44.6 °F 63% 30.16 in 10.0 mi Calm Calm - N/A   Clear
9:13 PM 57.2 °F 44.6 °F 63% 30.16 in 10.0 mi Calm Calm - N/A   Clear
9:33 PM 55.4 °F 44.6 °F 67% 30.16 in 10.0 mi Calm Calm - N/A   Clear
9:52 PM 55.4 °F 44.6 °F 67% 30.16 in 10.0 mi Calm Calm - N/A   Clear
10:13 PM 55.4 °F 44.6 °F 67% 30.16 in 10.0 mi Calm Calm - N/A   Clear
10:33 PM 55.4 °F 44.6 °F 67% 30.16 in 10.0 mi Calm Calm - N/A   Clear
10:52 PM 53.6 °F 44.6 °F 72% 30.16 in 10.0 mi Calm Calm - N/A   Clear
11:13 PM 51.8 °F 44.6 °F 76% 30.17 in 10.0 mi Calm Calm - N/A   Clear
11:32 PM 48.2 °F 42.8 °F 82% 30.17 in 10.0 mi Calm Calm - N/A   Clear
11:52 PM 48.2 °F 42.8 °F 82% 30.16 in 10.0 mi Calm Calm - N/A   Clear